Regional Weather Roundup
Issued by NWS

Home | Current Version | Previous Version | Text Only | Print | Product List | Glossary On
Versions: 1 2 3 4 5 6 7 8 9 10 11 12 13 14 15 16 17 18 19 20 21 22 23 24 25 26 27 28 29 30 31 32 33 34 35 36 37 38 39 40 41 42 43 44 45 46 47 48 49 50
000
ASUS43 KDMX 060503
RWRIA

WEATHER ROUNDUP FOR IOWA
NATIONAL WEATHER SERVICE DES MOINES IA
1200 AM CDT FRI MAY 06 2016

NOTE: "FAIR" INDICATES FEW OR NO CLOUDS BELOW 12,000 FEET WITH NO
SIGNIFICANT WEATHER AND/OR OBSTRUCTIONS TO VISIBILITY.

* - THESE STATIONS ARE NOT NWS STATIONS...THUS NOT UNDER NWS
QUALITY CONTROL.  THEY ALSO DO NOT REPORT WEATHER SUCH
AS PRECIPITATION OR FOG.

IAZ001>003-012>014-020>022-031>034-043>046-060600-
   NORTHWEST IOWA

CITY           SKY/WX    TMP DP  RH WIND       PRES   REMARKS
CARROLL *      CLEAR     59  41  51 SW12      29.98F
CHEROKEE *     CLEAR     54  43  67 S3        29.97F
DENISON *      CLEAR     61  41  48 CALM      29.98S
LE MARS *      CLEAR     59  45  58 S12       29.97S
ORANGE CITY *  CLEAR     59  45  58 S6        29.96F
SHELDON *      CLEAR     57  43  58 S7        29.95F
SIOUX CITY     CLEAR     55  46  71 SE7       29.97S
SPENCER        CLEAR     57  41  55 SW5       29.97S
STORM LAKE *   CLEAR     57  41  54 SW7       29.99S
$$

IAZ055>058-069>071-079>083-090>094-060600-
   SOUTHWEST IOWA

CITY           SKY/WX    TMP DP  RH WIND       PRES   REMARKS
ATLANTIC *     CLEAR     54  43  66 SW5       30.01S
AUDUBON *      CLEAR     54  43  66 CALM      30.02S
CLARINDA *       N/A     52  50  93 MISG      30.04S
COUNCIL BLFS * PTCLDY    63  41  45 S8        30.01S
CRESTON *      CLEAR     57  41  54 SW7       30.03S
HARLAN  *      CLEAR     55  43  62 S5        30.03S
LAMONI         CLEAR     55  41  59 S8        30.02F
RED OAK *      CLEAR     55  45  67 CALM      30.02S
SHENANDOAH *   CLEAR     59  45  58 CALM      30.02F
$$

IAZ047>049-059>061-072>074-084-060600-
   CENTRAL IOWA

CITY           SKY/WX    TMP DP  RH WIND       PRES   REMARKS
AMES           CLEAR     54  41  61 CALM      29.98F
ANKENY *       CLEAR     54  43  66 CALM      29.99S
BOONE *        CLEAR     59  39  47 SW6       29.98S
CHARITON *     CLEAR     55  39  54 S8        30.01S
DES MOINES     CLEAR     56  39  53 S7        30.00F
GRINNELL*      CLEAR     55  36  47 SW8       30.00S
KNOXVILLE *    CLEAR     55  36  47 SW8       29.99F
MARSHALLTOWN   CLEAR     56  37  49 S6        29.98S
NEWTON *       CLEAR     55  37  50 SW6       29.99S
PELLA *        CLEAR     55  35  47 SW5       30.01F
PERRY *          N/A     55  43  62 S6        29.99S
$$

IAZ004>006-015-016-023>025-035-036-060600-
   NORTH CENTRAL IOWA

CITY           SKY/WX    TMP DP  RH WIND       PRES   REMARKS
ALGONA *       CLEAR     59  43  55 SW8       29.97S
CLARION *      CLEAR     55  39  54 SW8       29.97S
ESTHERVILLE    PTCLDY    60  40  47 SW9       29.95F
FORT DODGE *   CLEAR     54  39  58 CALM      29.98S
MASON CITY     CLEAR     55  40  56 SW6       29.97F
FOREST CITY *  CLEAR     48  39  71 CALM      29.96S
WEBSTER CITY * CLEAR     54  41  62 SW10      29.96S
IOWA FALLS *     N/A     57  39  51 S9        29.99S
$$

IAZ007>011-017>019-026>030-037>042-050>054-066-060600-
   NORTHEAST IOWA

CITY           SKY/WX    TMP DP  RH WIND       PRES   REMARKS
CEDAR RAPIDS   CLEAR     50  40  68 S3        29.98F
CHARLES CITY * CLEAR     55  36  47 S8        29.96F
CLINTON *      CLEAR     51  41  68 S5        29.99F
DECORAH *      CLEAR     57  37  47 CALM      29.95S
DUBUQUE        CLEAR     51  38  60 S5        29.99R
MONTICELLO *   CLEAR     48  41  76 CALM      29.98S
OELWEIN *      CLEAR     52  37  58 S7        29.98S
WATERLOO       CLEAR     54  37  52 CALM      29.97S
$$

IAZ064-065-067-068-078-060600-
   EAST CENTRAL IOWA

CITY           SKY/WX    TMP DP  RH WIND       PRES   REMARKS
DAVENPORT      CLEAR     51  39  63 S5        30.00F
IOWA CITY      CLEAR     51  39  63 CALM      30.01S
MT. PLEASANT * CLEAR     54  41  62 SW5       30.01S
MUSCATINE *    CLEAR     50  43  76 CALM      30.00S
QUAD CITIES    CLEAR     48  42  80 CALM      29.99S
$$

IAZ062-063-075>077-085>089-095>099-060600-
   SOUTHEAST IOWA

CITY           SKY/WX    TMP DP  RH WIND       PRES   REMARKS
BURLINGTON     CLEAR     50  41  71 CALM      30.00F
FAIRFIELD *    CLEAR     55  34  44 SW5       30.01S
FORT MADISON * CLEAR     54  43  66 SW5       30.02S
KEOKUK *       CLEAR     50  43  76 SW5       30.01S
OSKALOOSA *      N/A     52  37  58 SW5       30.01S
OTTUMWA        CLEAR     50  38  63 S6        30.00F
WASHINGTON *   CLEAR     52  36  54 SW6       30.02S
$$

ABBREVIATIONS USED IN REMARKS
   TC - TEMPERATURES IN CELSIUS
  WCI - WIND CHILL INDEX
   HX - HEAT INDEX
  VSB - VISIBILITY
$$





USA.gov is the U.S. government's official web portal to all federal, state and local government web resources and services.